Location: Newark
(41.8083°N, 72.2500°W)
Time: 04:12:59
(UTC+00:00)

Transit 2A - Visible Passes

Search period start: 30 November 2021 00:00
Search period end: 10 December 2021 00:00
Orbit: 591 x 967 km, 66.7° (Epoch: 29 November)

Date Brightness Start Highest point End Pass type
(mag) Time Alt. Az. Time Alt. Az. Time Alt. Az.
03 Dec 8.7 11:18:09 10° N 11:20:02 11° NNE 11:21:56 10° NE visible
06 Dec 8.5 11:17:18 10° N 11:21:37 18° NE 11:25:51 10° E visible
07 Dec 8.7 10:43:32 10° N 10:46:57 15° NNE 10:50:20 10° ENE visible
08 Dec 8.8 10:10:02 10° N 10:12:13 12° NNE 10:14:24 10° NE visible
09 Dec 7.9 11:17:15 10° NNW 11:22:53 31° NE 11:28:17 10° ESE visible
